| time (UTC) | temp F | wind direction | speed MPH | gust MPH | rain 1hr in | rain 24hr in | rain mn in | humidity % | barometer mb |
| 20260504081553 | 63 | 360 | 3.0 | 6.0 | 0.00 | 0.00 | 0.00 | 60 | 1009.8 |
| 20260504044532 | 67 | 360 | 3.0 | 9.0 | 0.00 | 0.00 | 0.00 | 50 | 1011.8 |
| 20260504043026 | 68 | 360 | 4.0 | 9.0 | 0.00 | 0.00 | 0.00 | 50 | 1011.8 |
| 20260504041524 | 68 | 360 | 3.0 | 10.0 | 0.00 | 0.00 | 0.00 | 50 | 1012.1 |
| 20260504040023 | 68 | 360 | 2.0 | 8.0 | 0.00 | 0.00 | 0.00 | 50 | 1012.4 |
| 20260504034533 | 69 | 360 | 3.0 | 13.0 | 0.00 | 0.00 | 0.00 | 48 | 1012.4 |
| 20260504033022 | 69 | 360 | 3.0 | 11.0 | 0.00 | 0.00 | 0.00 | 47 | 1012.4 |
| 20260504031522 | 70 | 360 | 3.0 | 10.0 | 0.00 | 0.00 | 0.00 | 46 | 1012.3 |
| 20260504030037 | 71 | 360 | 4.0 | 10.0 | 0.00 | 0.00 | 0.00 | 45 | 1012.2 |
| 20260504024520 | 71 | 360 | 3.0 | 8.0 | 0.00 | 0.00 | 0.00 | 44 | 1012.2 |
| 20260504023020 | 71 | 360 | 3.0 | 9.0 | 0.00 | 0.00 | 0.00 | 44 | 1012.2 |
| 20260504021518 | 72 | 360 | 3.0 | 9.0 | 0.00 | 0.00 | 0.00 | 43 | 1011.9 |
| 20260504020018 | 73 | 360 | 3.0 | 9.0 | 0.00 | 0.00 | 0.00 | 42 | 1011.8 |
| 20260504014532 | 73 | 360 | 3.0 | 10.0 | 0.00 | 0.00 | 0.00 | 42 | 1011.8 |
| 20260504013017 | 74 | 360 | 3.0 | 8.0 | 0.00 | 0.00 | 0.00 | 40 | 1011.9 |
| 20260504011516 | 75 | 360 | 3.0 | 9.0 | 0.00 | 0.00 | 0.00 | 39 | 1011.8 |
| 20260504010020 | 76 | 360 | 4.0 | 8.0 | 0.00 | 0.00 | 0.00 | 37 | 1011.9 |
| 20260504004515 | 76 | 360 | 3.0 | 9.0 | 0.00 | 0.00 | 0.00 | 36 | 1012.1 |
| 20260504003025 | 77 | 360 | 2.0 | 8.0 | 0.00 | 0.00 | 0.00 | 35 | 1012.0 |
| 20260504001512 | 78 | 360 | 4.0 | 9.0 | 0.00 | 0.00 | 0.00 | 34 | 1012.1 |
| 20260504000011 | 78 | 360 | 3.0 | 11.0 | 0.00 | 0.00 | 0.00 | 33 | 1012.2 |
| 20260503234527 | 79 | 360 | 5.0 | 10.0 | 0.00 | 0.00 | 0.00 | 33 | 1012.3 |
| 20260503233011 | 80 | 360 | 3.0 | 13.0 | 0.00 | 0.00 | 0.00 | 34 | 1012.4 |
| 20260503231512 | 80 | 360 | 2.0 | 9.0 | 0.00 | 0.00 | 0.00 | 33 | 1012.3 |
| 20260503230007 | 80 | 360 | 2.0 | 8.0 | 0.00 | 0.00 | 0.00 | 34 | 1012.5 |
| 20260503224505 | 81 | 360 | 3.0 | 11.0 | 0.00 | 0.00 | 0.00 | 32 | 1012.6 |
| 20260503223004 | 81 | 175 | 5.0 | 10.0 | 0.00 | 0.00 | 0.00 | 33 | 1012.7 |
| 20260503221503 | 81 | 219 | 4.0 | 9.0 | 0.00 | 0.00 | 0.00 | 30 | 1013.0 |
| 20260503220101 | 81 | 360 | 4.0 | 10.0 | 0.00 | 0.00 | 0.00 | 31 | 1012.9 |
| 20260503214601 | 82 | 360 | 3.0 | 9.0 | 0.00 | 0.00 | 0.00 | 31 | 1013.2 |
| 20260503213108 | 82 | 360 | 3.0 | 8.0 | 0.00 | 0.00 | 0.00 | 31 | 1013.4 |
| 20260503211556 | 82 | 360 | 2.0 | 11.0 | 0.00 | 0.00 | 0.00 | 34 | 1013.7 |
| 20260503210101 | 82 | 360 | 3.0 | 8.0 | 0.00 | 0.00 | 0.00 | 31 | 1013.9 |
| 20260503204555 | 82 | 162 | 4.0 | 11.0 | 0.00 | 0.00 | 0.00 | 32 | 1014.1 |
| 20260503203051 | 82 | 188 | 3.0 | 8.0 | 0.00 | 0.00 | 0.00 | 32 | 1014.5 |
| 20260503201551 | 82 | 236 | 3.0 | 7.0 | 0.00 | 0.00 | 0.00 | 33 | 1014.6 |
| 20260503200054 | 82 | 169 | 4.0 | 8.0 | 0.00 | 0.00 | 0.00 | 34 | 1015.0 |
| 20260503194547 | 81 | 200 | 3.0 | 8.0 | 0.00 | 0.00 | 0.00 | 32 | 1015.2 |
| 20260503193052 | 81 | 224 | 5.0 | 9.0 | 0.00 | 0.00 | 0.00 | 29 | 1015.5 |
| 20260503191544 | 81 | 152 | 3.0 | 10.0 | 0.00 | 0.00 | 0.00 | 37 | 1015.6 |
| 20260503190042 | 83 | 196 | 4.0 | 11.0 | 0.00 | 0.00 | 0.00 | 33 | 1015.6 |
| 20260503184551 | 83 | 221 | 4.0 | 9.0 | 0.00 | 0.00 | 0.00 | 34 | 1015.7 |
| 20260503183054 | 81 | 236 | 3.0 | 7.0 | 0.00 | 0.00 | 0.00 | 31 | 1016.0 |
| 20260503181534 | 81 | 207 | 2.0 | 8.0 | 0.00 | 0.00 | 0.00 | 37 | 1016.1 |
| 20260503180040 | 81 | 230 | 3.0 | 6.0 | 0.00 | 0.00 | 0.00 | 36 | 1016.5 |
| 20260503174529 | 80 | 217 | 2.0 | 5.0 | 0.00 | 0.00 | 0.00 | 38 | 1017.0 |
| 20260503173042 | 80 | 261 | 3.0 | 6.0 | 0.00 | 0.00 | 0.00 | 37 | 1017.0 |
| 20260503171527 | 79 | 233 | 1.0 | 6.0 | 0.00 | 0.00 | 0.00 | 43 | 1017.1 |